CSDDJ KTDW-ZZZZ

Flight info

Callsign CSDDJ
Flight time N/A
Altitude 2500
Route FOLLOW I40 ROAD TO WESTBOUND
Aircraft C152/L-SDFY/C

Departure

Time 2026-04-28 22:26
Airport Tradewind Airport (KTDW)

Arrival

Time N/A
Airport ZZZZ
Time Latitude Longitude Altitude Speed Heading
2026-04-28 22:22 35.16919 -101.82775 3641 ft 0 kts 143°
2026-04-28 22:23 35.16919 -101.82774 3641 ft 2 kts 141°
2026-04-28 22:23 35.16919 -101.82724 3643 ft 7 kts 63°
2026-04-28 22:23 35.16876 -101.82692 3642 ft 13 kts 177°
2026-04-28 22:23 35.16759 -101.82693 3644 ft 20 kts 179°
2026-04-28 22:24 35.16591 -101.82692 3644 ft 28 kts 180°
2026-04-28 22:24 35.16440 -101.82689 3644 ft 9 kts 159°
2026-04-28 22:24 35.16431 -101.82676 3642 ft 0 kts 90°
2026-04-28 22:24 35.16434 -101.82647 3644 ft 6 kts 47°
2026-04-28 22:25 35.16525 -101.82642 3643 ft 30 kts 360°
2026-04-28 22:25 35.16863 -101.82644 3662 ft 61 kts 360°
2026-04-28 22:25 35.17298 -101.82641 3787 ft 61 kts
2026-04-28 22:25 35.17707 -101.82657 3889 ft 62 kts
2026-04-28 22:26 35.18152 -101.82696 3928 ft 70 kts
2026-04-28 22:26 35.18605 -101.82711 4053 ft 63 kts
2026-04-28 22:26 35.19038 -101.82721 4258 ft 54 kts
2026-04-28 22:26 35.19480 -101.82647 4345 ft 62 kts 27°
2026-04-28 22:27 35.19919 -101.82433 4446 ft 65 kts 36°
2026-04-28 22:27 35.20357 -101.82226 4542 ft 76 kts 20°
2026-04-28 22:27 35.20899 -101.82131 4608 ft 81 kts
2026-04-28 22:27 35.21492 -101.82039 4509 ft 84 kts 17°
2026-04-28 22:28 35.22107 -101.82011 4426 ft 99 kts 358°
2026-04-28 22:28 35.22710 -101.82526 4310 ft 104 kts 308°
2026-04-28 22:28 35.22897 -101.83281 4387 ft 98 kts 275°
2026-04-28 22:28 35.22789 -101.84137 4393 ft 98 kts 259°
2026-04-28 22:29 35.22645 -101.84983 4431 ft 104 kts 262°
2026-04-28 22:29 35.22528 -101.85866 4365 ft 106 kts 272°
2026-04-28 22:29 35.22544 -101.86741 4326 ft 103 kts 283°
2026-04-28 22:29 35.22625 -101.87628 4346 ft 106 kts 277°
2026-04-28 22:30 35.22598 -101.88499 4464 ft 107 kts 261°
2026-04-28 22:30 35.22353 -101.89358 4505 ft 111 kts 248°
2026-04-28 22:30 35.21894 -101.90135 4568 ft 110 kts 217°
2026-04-28 22:30 35.21181 -101.90573 4557 ft 113 kts 191°
2026-04-28 22:31 35.20425 -101.90682 4608 ft 111 kts 178°
2026-04-28 22:31 35.19642 -101.90723 4644 ft 117 kts 186°
2026-04-28 22:31 35.18917 -101.91270 4446 ft 134 kts 234°
2026-04-28 22:31 35.18665 -101.92280 4467 ft 118 kts 274°
2026-04-28 22:32 35.18819 -101.93264 4340 ft 119 kts 295°
2026-04-28 22:32 35.18900 -101.94285 4276 ft 122 kts 273°
2026-04-28 22:32 35.18880 -101.95283 4307 ft 115 kts 278°
2026-04-28 22:32 35.18904 -101.96254 4228 ft 116 kts 281°
2026-04-28 22:33 35.18961 -101.97208 4191 ft 115 kts 281°
2026-04-28 22:33 35.19030 -101.98169 4216 ft 114 kts 282°
2026-04-28 22:33 35.19076 -101.99157 4199 ft 118 kts 277°
2026-04-28 22:33 35.19090 -102.00111 4247 ft 106 kts 277°
2026-04-28 22:34 35.19105 -102.01032 4236 ft 110 kts 280°
2026-04-28 22:34 35.19133 -102.01947 4312 ft 109 kts 279°
2026-04-28 22:34 35.19161 -102.02863 4416 ft 100 kts 279°
2026-04-28 22:34 35.19177 -102.03690 4438 ft 101 kts 277°
2026-04-28 22:35 35.19186 -102.04554 4425 ft 101 kts 269°
2026-04-28 22:35 35.19157 -102.05433 4422 ft 106 kts 269°
2026-04-28 22:35 35.19132 -102.06353 4397 ft 108 kts 270°
2026-04-28 22:35 35.19167 -102.07275 4413 ft 108 kts 273°
2026-04-28 22:36 35.19287 -102.08143 4495 ft 102 kts 285°
2026-04-28 22:36 35.19461 -102.08983 4463 ft 105 kts 287°
2026-04-28 22:36 35.19627 -102.09871 4431 ft 103 kts 284°
2026-04-28 22:36 35.19845 -102.10689 4494 ft 104 kts 293°
2026-04-28 22:37 35.20040 -102.11226 4532 ft 106 kts 295°
2026-04-28 22:37 35.20288 -102.12075 4605 ft 105 kts 288°
2026-04-28 22:37 35.20524 -102.13189 4704 ft 105 kts 284°
2026-04-28 22:37 35.20665 -102.14091 4643 ft 111 kts 283°
2026-04-28 22:38 35.20771 -102.14711 4640 ft 109 kts 282°
2026-04-28 22:38 35.20965 -102.15896 4618 ft 108 kts 283°
2026-04-28 22:38 35.21054 -102.16499 4683 ft 105 kts 280°
2026-04-28 22:38 35.21110 -102.17384 4750 ft 103 kts 273°
2026-04-28 22:39 35.21156 -102.18270 4742 ft 106 kts 275°
2026-04-28 22:39 35.21202 -102.19152 4819 ft 104 kts 272°
2026-04-28 22:39 35.21191 -102.20032 4837 ft 104 kts 267°
2026-04-28 22:39 35.21152 -102.20918 4859 ft 106 kts 268°
2026-04-28 22:40 35.21142 -102.21826 4887 ft 109 kts 271°
2026-04-28 22:40 35.21194 -102.22743 4990 ft 108 kts 280°
2026-04-28 22:40 35.21269 -102.23657 5046 ft 111 kts 281°
2026-04-28 22:40 35.21396 -102.24607 5080 ft 112 kts 286°
2026-04-28 22:41 35.21595 -102.25531 5148 ft 110 kts 286°
2026-04-28 22:41 35.21777 -102.26416 5242 ft 106 kts 285°
2026-04-28 22:41 35.21953 -102.27285 5249 ft 110 kts 287°
2026-04-28 22:41 35.22136 -102.28197 5283 ft 108 kts 286°
2026-04-28 22:42 35.22322 -102.29105 5265 ft 116 kts 285°
2026-04-28 22:42 35.22499 -102.30078 5257 ft 115 kts 286°
2026-04-28 22:42 35.22703 -102.31025 5310 ft 115 kts 288°
2026-04-28 22:42 35.22921 -102.31966 5381 ft 115 kts 289°
2026-04-28 22:43 35.23130 -102.32915 5395 ft 115 kts 287°
2026-04-28 22:43 35.23350 -102.33856 5340 ft 116 kts 289°
2026-04-28 22:43 35.23569 -102.34781 5321 ft 112 kts 287°
2026-04-28 22:43 35.23774 -102.35757 5215 ft 122 kts 289°
2026-04-28 22:44 35.23986 -102.36697 5244 ft 106 kts 290°
2026-04-28 22:44 35.24166 -102.37489 5229 ft 88 kts 291°
2026-04-28 22:44 35.24326 -102.38156 5070 ft 81 kts 291°
2026-04-28 22:44 35.24523 -102.38815 4789 ft 77 kts 290°
2026-04-28 22:45 35.24490 -102.39470 4477 ft 81 kts 247°
2026-04-28 22:45 35.24089 -102.39879 4205 ft 82 kts 186°
2026-04-28 22:45 35.23552 -102.39878 3986 ft 68 kts 175°
2026-04-28 22:45 35.23124 -102.39878 3954 ft 57 kts 175°
2026-04-28 22:46 35.22715 -102.39839 4030 ft 61 kts 168°
2026-04-28 22:46 35.22271 -102.39898 4116 ft 66 kts 196°
2026-04-28 22:46 35.21835 -102.40126 4182 ft 71 kts 198°
2026-04-28 22:46 35.21360 -102.40333 4242 ft 77 kts 194°
2026-04-28 22:47 35.21019 -102.40100 4366 ft 67 kts 81°
2026-04-28 22:47 35.21457 -102.39869 4320 ft 84 kts 359°
2026-04-28 22:47 35.22032 -102.39903 4124 ft 79 kts
2026-04-28 22:47 35.22537 -102.39881 3990 ft 68 kts
2026-04-28 22:48 35.22950 -102.39878 3950 ft 49 kts
2026-04-28 22:48 35.23140 -102.39877 3948 ft 14 kts
2026-04-28 22:48 35.23186 -102.39843 3949 ft 9 kts 99°
2026-04-28 22:48 35.23177 -102.39786 3949 ft 3 kts 165°
2026-04-28 22:49 35.23172 -102.39789 3950 ft 0 kts 245°